Weather History for KTSP - June, 2013

Change the Weather History Date:

Monday, June 24, 2013

  Actual Average Record
Temperature  
Mean Temperature 60 °F -  
Max Temperature 69 °F 83 °F 86 °F (2015)
Min Temperature 51 °F 52 °F 44 °F (2012)
Degree Days  
Heating Degree Days 5    
Growing Degree Days 10 (Base 50)    
Moisture  
Dew Point 48 °F    
Average Humidity 62    
Maximum Humidity 94    
Minimum Humidity 49    
Precipitation  
Precipitation 0.00 in - - ()
Sea Level Pressure  
Sea Level Pressure 29.95 in    
Wind  
Wind Speed 18 mph (WNW)    
Max Wind Speed 29 mph    
Max Gust Speed 38 mph    
Visibility 10 miles    
Events      
Averages and records for this station are not official NWS values.
T = Trace of Precipitation, MM = Missing Value Source: NWS Daily Summary

Daily Weather History Graph

Daily Weather History Graph

Search for Another Location

Airport or City:

Trip Planner

Search our weather history database for the weather conditions in past years. The results will help you decide how hot, cold, wet, or windy it might be!

Date:

Astronomy

Jun. 24, 2013 Rise Set
Actual Time 5:40 AM PDT 8:11 PM PDT
Civil Twilight 5:10 AM PDT 8:41 PM PDT
Nautical Twilight 4:33 AM PDT 9:18 PM PDT
Astronomical Twilight 3:53 AM PDT 9:59 PM PDT
Moon 9:23 PM PDT (6/24) 7:09 AM PDT (6/24)
Length of Visible Light 15h 30m
Length of Day
14h 31m
Full, 97% of the Moon is Illuminated
Jun 24
Full
Jun 29
Last Quarter
Jul 8
New
Jul 15
First Quarter
Jul 22
Full

Hourly Weather History & Observations

Time (PDT) Temp. Dew Point Humidity Pressure Visibility Wind Dir Wind Speed Gust Speed Precip Events Conditions
12:15 AM 59.0 °F 42.8 °F 55% 29.89 in 10.0 mi West 18.4 mph 21.9 mph N/A   Clear
12:35 AM 57.2 °F 44.6 °F 63% 29.90 in 10.0 mi West 18.4 mph - N/A   Clear
12:55 AM 57.2 °F 42.8 °F 59% 29.90 in 10.0 mi West 12.7 mph 20.7 mph N/A   Clear
1:15 AM 57.2 °F 42.8 °F 59% 29.91 in 10.0 mi West 12.7 mph 17.3 mph N/A   Clear
1:35 AM 55.4 °F 42.8 °F 63% 29.90 in 10.0 mi West 17.3 mph 20.7 mph N/A   Clear
1:55 AM 55.4 °F 42.8 °F 63% 29.90 in 10.0 mi West 15.0 mph - N/A   Clear
2:15 AM 55.4 °F 41.0 °F 58% 29.90 in 10.0 mi West 17.3 mph 21.9 mph N/A   Clear
2:35 AM 55.4 °F 41.0 °F 58% 29.89 in 10.0 mi West 17.3 mph - N/A   Clear
2:55 AM 55.4 °F 42.8 °F 63% 29.89 in 10.0 mi West 20.7 mph 26.5 mph N/A   Clear
3:15 AM 55.4 °F 42.8 °F 63% 29.89 in 10.0 mi WNW 18.4 mph 26.5 mph N/A   Clear
3:35 AM 55.4 °F 42.8 °F 63% 29.89 in 10.0 mi WNW 17.3 mph - N/A   Clear
3:55 AM 53.6 °F 44.6 °F 72% 29.89 in 10.0 mi West 13.8 mph - N/A   Clear
4:15 AM 53.6 °F 46.4 °F 77% 29.90 in 10.0 mi West 16.1 mph - N/A   Clear
4:35 AM 53.6 °F 46.4 °F 77% 29.90 in 10.0 mi West 12.7 mph - N/A   Clear
4:55 AM 51.8 °F 46.4 °F 82% 29.91 in 10.0 mi West 12.7 mph - N/A   Clear
5:15 AM 51.8 °F 48.2 °F 88% 29.91 in 10.0 mi WNW 12.7 mph - N/A   Clear
5:35 AM 51.8 °F 48.2 °F 88% 29.91 in 9.0 mi WNW 11.5 mph - N/A   Clear
5:55 AM 51.8 °F 48.2 °F 88% 29.91 in 8.0 mi WNW 12.7 mph - N/A   Clear
6:15 AM 51.8 °F 50.0 °F 94% 29.92 in 8.0 mi WNW 12.7 mph - N/A   Partly Cloudy
6:35 AM 53.6 °F 50.0 °F 88% 29.92 in 7.0 mi WNW 12.7 mph - N/A   Mostly Cloudy
6:55 AM 53.6 °F 50.0 °F 88% 29.92 in 8.0 mi WNW 9.2 mph - N/A   Overcast
7:15 AM 55.4 °F 50.0 °F 82% 29.93 in 9.0 mi WNW 10.4 mph - N/A   Overcast
7:35 AM 55.4 °F 50.0 °F 82% 29.93 in 10.0 mi NW 11.5 mph - N/A   Mostly Cloudy
7:55 AM 59.0 °F 50.0 °F 72% 29.94 in 10.0 mi WNW 15.0 mph - N/A   Scattered Clouds
8:15 AM 59.0 °F 50.0 °F 72% 29.94 in 10.0 mi NW 13.8 mph - N/A   Mostly Cloudy
8:35 AM 60.8 °F 50.0 °F 68% 29.94 in 10.0 mi NW 17.3 mph 23.0 mph N/A   Mostly Cloudy
8:55 AM 62.6 °F 50.0 °F 63% 29.95 in 10.0 mi NW 17.3 mph 21.9 mph N/A   Scattered Clouds
9:15 AM 62.6 °F 50.0 °F 63% 29.95 in 10.0 mi NW 18.4 mph 25.3 mph N/A   Partly Cloudy
9:35 AM 64.4 °F 50.0 °F 59% 29.95 in 10.0 mi NW 21.9 mph 25.3 mph N/A   Clear
9:55 AM 64.4 °F 50.0 °F 59% 29.95 in 10.0 mi NW 19.6 mph 25.3 mph N/A   Clear
10:15 AM 64.4 °F 50.0 °F 59% 29.95 in 10.0 mi NW 20.7 mph 26.5 mph N/A   Partly Cloudy
10:35 AM 64.4 °F 48.2 °F 56% 29.96 in 10.0 mi WNW 20.7 mph 26.5 mph N/A   Scattered Clouds
10:55 AM 64.4 °F 48.2 °F 56% 29.95 in 10.0 mi NW 19.6 mph 27.6 mph N/A   Mostly Cloudy
11:15 AM 62.6 °F 48.2 °F 59% 29.96 in 10.0 mi NW 23.0 mph 27.6 mph N/A   Mostly Cloudy
11:35 AM 62.6 °F 48.2 °F 59% 29.97 in 10.0 mi NW 21.9 mph 27.6 mph N/A   Overcast
11:55 AM 62.6 °F 46.4 °F 55% 29.97 in 10.0 mi NW 19.6 mph 25.3 mph N/A   Overcast
12:15 PM 62.6 °F 48.2 °F 59% 29.97 in 10.0 mi NW 18.4 mph 24.2 mph N/A   Overcast
12:35 PM 62.6 °F 48.2 °F 59% 29.98 in 10.0 mi NW 20.7 mph 24.2 mph N/A   Overcast
12:55 PM 64.4 °F 48.2 °F 56% 29.97 in 10.0 mi NW 18.4 mph 23.0 mph N/A   Overcast
1:15 PM 64.4 °F 48.2 °F 56% 29.98 in 10.0 mi NW 18.4 mph 23.0 mph N/A   Overcast
1:35 PM 64.4 °F 50.0 °F 59% 29.98 in 10.0 mi NW 20.7 mph 26.5 mph N/A   Overcast
1:55 PM 66.2 °F 50.0 °F 56% 29.97 in 10.0 mi NW 19.6 mph 27.6 mph N/A   Overcast
2:15 PM 66.2 °F 50.0 °F 56% 29.97 in 10.0 mi NW 21.9 mph 29.9 mph N/A   Overcast
2:35 PM 68.0 °F 50.0 °F 52% 29.97 in 10.0 mi NW 23.0 mph 34.5 mph N/A   Mostly Cloudy
2:55 PM 66.2 °F 50.0 °F 56% 29.96 in 10.0 mi NW 24.2 mph 29.9 mph N/A   Mostly Cloudy
3:15 PM 68.0 °F 50.0 °F 52% 29.95 in 10.0 mi NW 27.6 mph 33.4 mph N/A   Mostly Cloudy
3:35 PM 69.8 °F 50.0 °F 49% 29.95 in 10.0 mi NW 21.9 mph 35.7 mph N/A   Scattered Clouds
3:55 PM 68.0 °F 50.0 °F 52% 29.95 in 10.0 mi NW 24.2 mph 34.5 mph N/A   Scattered Clouds
4:15 PM 69.8 °F 50.0 °F 49% 29.95 in 10.0 mi NNW 28.8 mph 38.0 mph N/A   Partly Cloudy
4:35 PM 68.0 °F 50.0 °F 52% 29.95 in 10.0 mi NW 24.2 mph 32.2 mph N/A   Partly Cloudy
4:55 PM 68.0 °F 50.0 °F 52% 29.95 in 10.0 mi NW 26.5 mph 36.8 mph N/A   Partly Cloudy
5:15 PM 68.0 °F 50.0 °F 52% 29.95 in 10.0 mi WNW 26.5 mph 36.8 mph N/A   Clear
5:35 PM 68.0 °F 48.2 °F 49% 29.95 in 10.0 mi NW 26.5 mph 35.7 mph N/A   Partly Cloudy
5:55 PM 68.0 °F 48.2 °F 49% 29.94 in 10.0 mi WNW 25.3 mph 33.4 mph N/A   Partly Cloudy
6:15 PM 68.0 °F 48.2 °F 49% 29.95 in 10.0 mi NW 27.6 mph 34.5 mph N/A   Clear
6:35 PM 68.0 °F 48.2 °F 49% 29.94 in 10.0 mi NW 26.5 mph 33.4 mph N/A   Clear
6:55 PM 66.2 °F 48.2 °F 52% 29.95 in 10.0 mi WNW 25.3 mph 35.7 mph N/A   Clear
7:15 PM 66.2 °F 48.2 °F 52% 29.95 in 10.0 mi WNW 21.9 mph 35.7 mph N/A   Clear
7:35 PM 66.2 °F 48.2 °F 52% 29.96 in 10.0 mi WNW 26.5 mph 33.4 mph N/A   Clear
7:55 PM 64.4 °F 48.2 °F 56% 29.96 in 10.0 mi WNW 24.2 mph 29.9 mph N/A   Clear
8:15 PM 64.4 °F 50.0 °F 59% 29.97 in 10.0 mi WNW 20.7 mph 31.1 mph N/A   Clear
8:35 PM 62.6 °F 50.0 °F 63% 29.97 in 10.0 mi WNW 24.2 mph 29.9 mph N/A   Clear
8:55 PM 62.6 °F 50.0 °F 63% 29.98 in 10.0 mi WNW 21.9 mph 27.6 mph N/A   Clear
9:15 PM 62.6 °F 50.0 °F 63% 29.99 in 10.0 mi WNW 21.9 mph 29.9 mph N/A   Clear
9:35 PM 62.6 °F 50.0 °F 63% 30.00 in 10.0 mi WNW 19.6 mph 27.6 mph N/A   Clear
9:55 PM 62.6 °F 48.2 °F 59% 30.00 in 10.0 mi NW 19.6 mph 25.3 mph N/A   Clear
10:15 PM 60.8 °F 48.2 °F 63% 30.00 in 10.0 mi WNW 19.6 mph 25.3 mph N/A   Clear
10:35 PM 60.8 °F 46.4 °F 59% 30.00 in 10.0 mi WNW 17.3 mph 25.3 mph N/A   Clear
10:55 PM 60.8 °F 46.4 °F 59% 30.01 in 10.0 mi NW 18.4 mph 23.0 mph N/A   Clear
11:15 PM 59.0 °F 46.4 °F 63% 30.01 in 10.0 mi NW 15.0 mph 19.6 mph N/A   Clear
11:35 PM 59.0 °F 48.2 °F 67% 30.01 in 10.0 mi NW 11.5 mph 19.6 mph N/A   Clear
11:55 PM 59.0 °F 48.2 °F 67% 30.02 in 10.0 mi NW 13.8 mph 18.4 mph N/A   Clear